Location: Amarillo Post Office Jordan Station
(35.1907°N, 101.9342°W)
Time: 13:45:43
(UTC+00:00)

USA 308 - Pass Details

Date: 24 January 2021
Orbit: 568 x 578 km, 54.0° (Epoch: 02 March)

Event Time Altitude Azimuth Distance (km) Brightness Sun altitude
Exits shadow 12:45:21 22° 279° (W) 1,249 4.0 -13.7°
Maximum altitude 12:47:09 31° 322° (NW) 1,001 3.7 -13.4°
Drops below altitude 10° 12:50:57 10° 26° (NNE) 1,867 5.7 -12.6°
Sets 12:53:24 0° 37° (NE) 2,767 6.7 -12.1°
